Location: Sihaung
(22.8641°N, 94.0549°E)
Time: 12:57:53
(UTC+00:00)

SL-16 R/B - Pass Details

Date: 03 March 2021
Orbit: 843 x 845 km, 71.0° (Epoch: 16 April)

Event Time Altitude Azimuth Distance (km) Brightness Sun altitude
Rises 23:24:03 0° 320° (NW) 3,401 4.9 -9.7°
Reaches altitude 10° 23:27:08 10° 304° (NW) 2,464 4.1 -9.0°
Maximum altitude 23:31:06 20° 259° (W) 1,863 3.4 -8.1°
Drops below altitude 10° 23:35:04 10° 214° (SSW) 2,457 4.3 -7.2°
Sets 23:38:08 0° 197° (SSW) 3,389 5.2 -6.5°
